www.pogodaiklimat.ru

Погода и климат >> Архив погоды >> Австралия >> Adelaide


АРХИВ ПОГОДЫ в Adelaide

Время (UTC), дата Ветер
(напр.,м/с)
 
Видим.   Явления Облачность Т
(С)
Тd
(С)
f
(%)
Тe
(С)
Тes
(С)
Комфортность P
(гПа)
Po
(гПа)
Тmin
(С)
Tmax
(С)
R
(мм)
R24
(мм)
S
(см)
13 15.02 Ю 4 н/о н/о +19.1 +11.6 62 +20 +20 по сезону 1015.6 1014.6
14 15.02 Ю 4 н/о н/о +18.3 +12.1 67 +19 +19 по сезону 1015.5 1014.5
15 15.02 Ю 3 н/о н/о +17.0 +12.1 73 +17 +17 прохладно 1015.5 1014.5
16 15.02 Ю 4 н/о н/о +17.8 +12.2 70 +18 +18 по сезону 1015.5 1014.5
17 15.02 Ю 4 н/о н/о +17.5 +12.6 73 +17 +17 по сезону 1015.1 1014.1
18 15.02 Ю 2 н/о н/о +16.2 +12.6 79 +17 +17 по сезону 1015.1 1014.1
19 15.02 ЮЗ 2 н/о н/о +15.8 +12.7 82 +16 +16 очень
холодно
1015.4 1014.4
20 15.02 штиль 0 н/о н/о +15.7 +12.6 82 +16 +16 холодно 1015.7 1014.7
21 15.02 ЮВ 1 н/о н/о +17.3 +13.0 76 +19 +19 прохладно 1016.2 1015.2
22 15.02 ЮВ 1 н/о н/о +19.1 +12.7 66 +21 +21 комфорт 1016.7 1015.7
23 15.02 Ю 4 н/о н/о +20.4 +11.7 57 +22 +22 комфорт 1016.9 1015.9
00 16.02 ЮЗ 5 н/о н/о +20.7 +12.9 61 +23 +23 комфорт 1016.8 1015.8
01 16.02 ЮЗ 5 н/о н/о +21.2 +13.1 60 +24 +24 комфорт 1016.7 1015.7
02 16.02 ЮЗ 7 н/о н/о +21.9 +12.1 54 +24 +24 комфорт 1016.4 1015.4
03 16.02 ЮЗ 7 н/о н/о +21.8 +12.2 54 +24 +24 комфорт 1016.1 1015.1
04 16.02 ЮЗ 7 н/о н/о +22.5 +13.3 56 +25 +25 комфорт 1015.9 1014.9
05 16.02 ЮЗ 7 н/о н/о +22.9 +11.7 49 +25 +25 комфорт 1015.2 1014.2
06 16.02 ЮЗ 7 н/о н/о +22.9 +12.1 51 +26 +26 жарко 1014.8 1013.8
07 16.02 ЮЗ 6 н/о н/о +22.5 +13.3 56 +25 +25 комфорт 1014.5 1013.5
08 16.02 ЮЗ 7 н/о н/о +22.5 +13.7 57 +26 +26 жарко 1014.3 1013.3
09 16.02 ЮЗ 6 н/о н/о +21.1 +13.8 63 +24 +24 комфорт 1014.0 1013.0
10 16.02 Ю 5 н/о н/о +20.3 +13.9 67 +23 +23 комфорт 1014.4 1013.4
11 16.02 Ю 4 н/о н/о +20.0 +13.5 66 +22 +22 комфорт 1014.5 1013.5
12 16.02 ЮВ 4 н/о н/о +18.1 +11.7 66 +18 +18 прохладно 1014.8 1013.8
13 16.02 ЮВ 4 н/о н/о +17.2 +11.5 69 +17 +17 прохладно 1014.9 1013.9
14 16.02 ЮВ 3 н/о н/о +17.0 +11.5 70 +17 +17 прохладно 1014.2 1013.2
15 16.02 ЮВ 2 н/о н/о +16.1 +11.5 74 +16 +16 прохладно 1013.7 1012.7
16 16.02 штиль 0 н/о н/о +15.6 +11.7 78 +15 +15 прохладно 1012.9 1011.9
17 16.02 штиль 0 н/о н/о +15.1 +12.0 82 +15 +15 прохладно 1012.9 1011.9
18 16.02 штиль 0 н/о н/о +15.1 +11.4 79 +15 +15 прохладно 1012.5 1011.5
19 16.02 штиль 0 н/о н/о +14.5 +11.1 80 +14 +14 очень
холодно
1012.7 1011.7
20 16.02 СВ 2 н/о н/о +14.6 +11.2 80 +14 +14 очень
холодно
1013.1 1012.1
21 16.02 СВ 3 н/о н/о +15.4 +11.7 79 +15 +15 холодно 1013.9 1012.9
22 16.02 В 3 н/о н/о +18.8 +11.9 64 +20 +20 очень
холодно
1014.4 1013.4
23 16.02 С 2 н/о н/о +20.8 +12.2 58 +24 +24 комфорт 1014.7 1013.7
00 17.02 СЗ 3 н/о н/о +21.7 +13.1 58 +24 +24 комфорт 1014.2 1013.2
01 17.02 ЮЗ 5 н/о н/о +21.7 +13.6 60 +24 +24 комфорт 1014.0 1013.0
02 17.02 З 5 н/о н/о +21.6 +13.6 60 +24 +24 комфорт 1013.2 1012.2
03 17.02 ЮЗ 6 н/о н/о +22.6 +14.2 59 +26 +26 жарко 1012.6 1011.6
04 17.02 ЮЗ 7 н/о н/о +23.3 +13.7 55 +27 +27 душно 1012.3 1011.3
05 17.02 ЮЗ 8 н/о н/о +22.4 +13.8 58 +26 +26 жарко 1011.8 1010.8
06 17.02 ЮЗ 6 н/о н/о +22.1 +14.0 60 +25 +25 комфорт 1011.3 1010.3
07 17.02 ЮЗ 5 н/о н/о +23.1 +12.4 51 +26 +26 жарко 1010.6 1009.6
08 17.02 ЮЗ 6 н/о н/о +23.1 +14.3 58 +27 +27 душно 1010.1 1009.1
09 17.02 ЮЗ 6 н/о н/о +22.1 +15.6 67 +26 +26 душно 1010.0 1009.0
10 17.02 ЮЗ 6 н/о н/о +22.1 +16.0 68 +26 +26 душно 1010.6 1009.6
11 17.02 ЮВ 4 н/о н/о +21.2 +13.6 62 +24 +24 комфорт 1011.2 1010.2
12 17.02 Ю 3 н/о н/о +19.9 +13.4 66 +22 +22 комфорт 1011.3 1010.3
13 17.02 Ю 2 н/о н/о +18.8 +13.9 73 +20 +20 по сезону 1011.1 1010.1
14 17.02 штиль 0 н/о н/о +18.2 +13.4 74 +18 +18 по сезону 1010.6 1009.6
15 17.02 Ю 2 н/о н/о +18.4 +13.7 74 +20 +20 по сезону 1010.2 1009.2
16 17.02 Ю 3 н/о н/о +18.1 +13.1 73 +19 +19 тепло 1009.4 1008.4
17 17.02 ЮВ 2 н/о н/о +17.6 +12.8 73 +18 +18 по сезону 1009.0 1008.0
18 17.02 В 2 н/о н/о +17.3 +12.6 74 +18 +18 по сезону 1009.0 1008.0
19 17.02 штиль 0 н/о н/о +17.3 +12.6 74 +17 +17 холодно 1008.5 1007.5
20 17.02 ЮВ 2 н/о н/о +17.5 +12.5 72 +18 +18 прохладно 1009.0 1008.0
21 17.02 В 2 н/о н/о +17.7 +13.3 75 +18 +18 прохладно 1010.0 1009.0
22 17.02 ЮВ 2 н/о н/о +21.2 +12.8 59 +23 +23 комфорт 1010.8 1009.8
23 17.02 ЮВ 2 н/о н/о +24.3 +12.4 47 +26 +26 жарко 1011.4 1010.4
00 18.02 ЮЗ 5 н/о н/о +25.7 +11.4 41 +27 +27 жарко 1012.4 1011.4
01 18.02 ЮВ 4 н/о н/о +25.0 +11.1 42 +26 +26 жарко 1011.9 1010.9
02 18.02 Ю 5 н/о н/о +23.7 +13.8 54 +26 +26 жарко 1012.1 1011.1
03 18.02 В 4 н/о н/о +21.5 +16.2 72 +25 +25 комфорт 1011.5 1010.5
04 18.02 ЮВ 2 н/о н/о +22.5 +16.4 68 +27 +27 душно 1011.6 1010.6
05 18.02 СЗ 4 н/о н/о +22.5 +17.3 72 +27 +27 душно 1012.5 1011.5
06 18.02 ЮЗ 3 н/о н/о +21.5 +15.8 70 +25 +25 комфорт 1012.7 1011.7
07 18.02 СВ 2 н/о н/о +21.2 +15.1 68 +24 +24 комфорт 1012.1 1011.1
08 18.02 ЮВ 3 н/о н/о +22.0 +15.8 68 +26 +26 душно 1011.8 1010.8
09 18.02 Ю 4 н/о н/о +21.8 +14.3 62 +25 +25 комфорт 1011.9 1010.9
10 18.02 Ю 4 н/о н/о +21.5 +15.1 67 +25 +25 комфорт 1012.3 1011.3
11 18.02 ЮВ 4 н/о н/о +20.5 +15.1 71 +23 +23 комфорт 1013.2 1012.2
12 18.02 ЮВ 6 н/о н/о +19.5 +13.9 70 +21 +21 комфорт 1013.4 1012.4
13 18.02 ЮВ 6 н/о н/о +19.4 +14.2 72 +21 +21 комфорт 1013.1 1012.1
14 18.02 ЮВ 6 н/о н/о +19.1 +13.3 69 +20 +20 по сезону 1013.0 1012.0
15 18.02 ЮВ 5 н/о н/о +18.9 +14.0 73 +20 +20 по сезону 1013.0 1012.0
16 18.02 ЮВ 5 н/о н/о +18.6 +14.3 76 +19 +19 тепло 1012.9 1011.9
17 18.02 ЮВ 5 н/о н/о +18.7 +14.2 75 +19 +19 тепло 1012.9 1011.9
18 18.02 Ю 5 н/о н/о +18.5 +14.1 76 +19 +19 тепло 1012.6 1011.6
19 18.02 Ю 6 н/о н/о +18.5 +14.0 75 +19 +19 прохладно 1012.7 1011.7
20 18.02 ЮВ 8 н/о н/о +18.5 +13.6 73 +18 +18 прохладно 1013.2 1012.2
21 18.02 ЮВ 4 н/о н/о +18.5 +13.4 72 +19 +19 по сезону 1013.9 1012.9
22 18.02 ЮВ 6 н/о н/о +19.1 +13.3 69 +20 +20 холодно 1014.6 1013.6
23 18.02 ЮВ 6 н/о н/о +20.2 +13.6 66 +22 +22 комфорт 1015.0 1014.0
00 19.02 ЮВ 5 н/о н/о +21.3 +13.7 62 +24 +24 комфорт 1015.1 1014.1
01 19.02 В 7 н/о н/о +22.7 +13.3 55 +26 +26 жарко 1014.9 1013.9
02 19.02 ЮВ 5 н/о н/о +25.0 +12.9 47 +27 +27 жарко 1014.2 1013.2
03 19.02 ЮВ 7 н/о н/о +26.7 +12.6 42 +28 +28 жарко 1013.5 1012.5
04 19.02 В 6 н/о н/о +27.5 +12.1 38 +29 +29 жарко 1012.5 1011.5
05 19.02 Ю 7 н/о н/о +28.3 +12.6 38 +30 +30 жарко 1011.7 1010.7
06 19.02 В 7 н/о н/о +28.2 +12.2 37 +29 +29 жарко 1011.3 1010.3
07 19.02 ЮВ 7 н/о н/о +28.1 +13.0 39 +30 +30 жарко 1011.1 1010.1
08 19.02 Ю 7 н/о н/о +26.4 +12.2 41 +28 +28 жарко 1011.0 1010.0
09 19.02 Ю 7 н/о н/о +24.8 +12.0 45 +26 +26 жарко 1011.3 1010.3
10 19.02 Ю 5 н/о н/о +22.5 +12.3 52 +25 +25 комфорт 1012.0 1011.0
11 19.02 Ю 5 н/о н/о +21.2 +12.7 58 +23 +23 комфорт 1012.9 1011.9
12 19.02 Ю 6 н/о н/о +20.3 +13.5 65 +22 +22 комфорт 1012.7 1011.7
13 19.02 ЮЗ 3 н/о н/о +20.5 +13.3 63 +23 +23 комфорт 1012.7 1011.7
14 19.02 ЮВ 4 н/о н/о +21.6 +12.6 57 +24 +24 комфорт 1012.6 1011.6
15 19.02 В 6 н/о н/о +21.7 +12.5 56 +24 +24 комфорт 1011.7 1010.7
16 19.02 В 8 н/о н/о +21.8 +12.4 55 +24 +24 комфорт 1011.5 1010.5
17 19.02 В 4 н/о н/о +21.2 +12.8 59 +23 +23 комфорт 1011.3 1010.3
18 19.02 В 2 н/о н/о +20.5 +12.9 62 +23 +23 комфорт 1011.0 1010.0
19 19.02 В 4 н/о н/о +20.2 +13.4 65 +22 +22 комфорт 1011.0 1010.0
20 19.02 В 6 н/о н/о +21.6 +13.4 60 +24 +24 комфорт 1011.4 1010.4
21 19.02 В 3 н/о н/о +22.9 +14.0 57 +26 +26 жарко 1011.9 1010.9
22 19.02 ЮЗ 3 н/о н/о +24.1 +15.3 58 +27 +27 жарко 1012.2 1011.2
23 19.02 СВ 6 н/о н/о +24.7 +15.8 58 +28 +28 душно 1012.1 1011.1
00 20.02 С 3 н/о н/о +26.3 +15.8 52 +29 +29 жарко 1012.1 1011.1
01 20.02 ЮЗ 5 н/о н/о +25.1 +16.1 57 +28 +28 жарко 1012.6 1011.6
02 20.02 ЮЗ 5 н/о н/о +26.6 +15.4 50 +29 +29 жарко 1011.7 1010.7
03 20.02 ЮЗ 4 н/о н/о +26.7 +15.1 49 +29 +29 жарко 1011.0 1010.0
04 20.02 ЮЗ 5 н/о н/о +27.8 +16.0 49 +31 +31 душно 1010.3 1009.3
05 20.02 ЮЗ 8 н/о н/о +26.6 +18.8 62 +32 +32 очень
душно
1010.1 1009.1
06 20.02 ЮЗ 8 н/о н/о +27.2 +16.9 53 +31 +31 душно 1009.9 1008.9
07 20.02 ЮЗ 8 н/о н/о +26.5 +18.0 60 +31 +31 душно 1010.1 1009.1
08 20.02 Ю 7 н/о н/о +27.0 +16.3 52 +30 +30 душно 1010.1 1009.1
09 20.02 Ю 3 н/о н/о +27.2 +16.0 50 +30 +30 душно 1010.0 1009.0
10 20.02 ЮЗ 3 н/о н/о +26.7 +17.5 57 +31 +31 душно 1010.1 1009.1
11 20.02 ЮВ 4 н/о н/о +27.8 +14.5 44 +30 +30 жарко 1010.1 1009.1
12 20.02 ЮВ 4 н/о н/о +26.6 +14.2 46 +29 +29 жарко 1010.1 1009.1
13 20.02 ЮВ 4 н/о н/о +26.8 +13.6 44 +29 +29 жарко 1009.8 1008.8
14 20.02 ЮВ 3 н/о н/о +25.6 +14.4 50 +28 +28 жарко 1009.4 1008.4
15 20.02 З 3 н/о н/о +24.5 +16.0 59 +28 +28 душно 1009.4 1008.4
16 20.02 штиль 0 н/о н/о +24.2 +17.3 65 +28 +28 душно 1009.1 1008.1
17 20.02 В 2 н/о н/о +23.8 +16.4 63 +27 +27 жарко 1008.9 1007.9
18 20.02 штиль 0 н/о н/о +24.5 +16.0 59 +28 +28 душно 1008.8 1007.8
19 20.02 З 2 н/о н/о +24.0 +18.8 73 +29 +29 душно 1009.3 1008.3
20 20.02 ЮЗ 5 н/о н/о +23.1 +19.0 78 +29 +29 очень
душно
1009.9 1008.9
21 20.02 штиль 0 н/о н/о +23.8 +17.7 69 +28 +28 душно 1010.0 1009.0
22 20.02 З 2 н/о н/о +24.4 +18.6 70 +29 +29 душно 1010.8 1009.8
23 20.02 ЮЗ 4 н/о н/о +26.7 +14.1 46 +29 +29 жарко 1010.9 1009.9
00 21.02 ЮВ 5 н/о н/о +27.1 +14.8 47 +30 +30 душно 1010.8 1009.8
01 21.02 ЮВ 4 н/о н/о +28.2 +14.6 43 +30 +30 жарко 1010.5 1009.5
02 21.02 З 4 н/о н/о +28.7 +16.5 48 +32 +32 душно 1011.0 1010.0
03 21.02 ЮЗ 9 н/о н/о +25.4 +18.1 64 +30 +30 душно 1011.2 1010.2
04 21.02 Ю 3 н/о н/о +27.0 +16.9 54 +31 +31 душно 1011.2 1010.2
05 21.02 З 6 н/о н/о +23.9 +19.7 77 +29 +29 душно 1011.3 1010.3
06 21.02 ЮЗ 4 н/о н/о +22.7 +20.1 85 +29 +29 очень
душно
1011.7 1010.7
07 21.02 СВ 6 н/о н/о +24.1 +18.6 71 +29 +29 душно 1011.0 1010.0
08 21.02 СВ 4 н/о н/о +24.9 +17.4 63 +29 +29 душно 1010.7 1009.7
09 21.02 СВ 3 н/о н/о +24.9 +18.1 66 +29 +29 душно 1011.0 1010.0
10 21.02 СВ 3 н/о н/о +24.2 +18.3 70 +29 +29 душно 1011.3 1010.3
11 21.02 СВ 3 н/о н/о +23.9 +18.3 71 +28 +28 душно 1011.7 1010.7
12 21.02 В 3 н/о н/о +23.3 +19.2 78 +30 +30 очень
душно
1011.6 1010.6
13 21.02 В 3 н/о н/о +23.0 +19.1 79 +29 +29 очень
душно
1010.6 1009.6
14 21.02 ЮВ 2 н/о н/о +23.2 +18.6 75 +29 +29 душно 1009.6 1008.6
15 21.02 СВ 2 н/о н/о +23.8 +17.5 68 +28 +28 душно 1009.2 1008.2
16 21.02 В 3 н/о н/о +23.5 +17.7 70 +28 +28 душно 1008.4 1007.4
17 21.02 штиль 0 н/о н/о +23.4 +17.6 70 +29 +29 душно 1008.6 1007.6
18 21.02 В 4 н/о н/о +23.5 +17.4 69 +27 +27 душно 1007.8 1006.8
19 21.02 С 3 н/о н/о +24.4 +17.0 63 +28 +28 душно 1007.5 1006.5
20 21.02 Ю 3 н/о н/о +23.6 +18.7 74 +28 +28 душно 1008.0 1007.0
21 21.02 ЮЗ 3 н/о н/о +23.6 +20.0 80 +29 +29 душно 1009.1 1008.1
22 21.02 З 3 н/о н/о +23.7 +20.0 80 +29 +29 душно 1009.7 1008.7
23 21.02 Ю 3 н/о н/о +24.8 +18.3 67 +29 +29 душно 1009.5 1008.5
00 22.02 ЮЗ 2 н/о н/о +25.9 +17.1 58 +30 +30 душно 1009.4 1008.4
01 22.02 ЮЗ 1 н/о н/о +26.4 +16.9 56 +30 +30 душно 1008.8 1007.8
02 22.02 З 4 н/о н/о +25.7 +17.8 62 +30 +30 душно 1008.6 1007.6
03 22.02 ЮЗ 4 н/о н/о +24.7 +19.2 71 +30 +30 очень
душно
1008.3 1007.3
04 22.02 Ю 4 н/о н/о +27.4 +18.7 59 +32 +32 очень
душно
1007.6 1006.6
05 22.02 ЮВ 4 н/о н/о +29.3 +16.5 46 +33 +33 душно 1006.3 1005.4
06 22.02 ЮВ 7 н/о н/о +29.1 +15.7 44 +32 +32 душно 1005.4 1004.5
07 22.02 В 5 н/о н/о +27.8 +17.1 52 +32 +32 душно 1005.6 1004.7
08 22.02 В 7 н/о н/о +26.0 +17.6 60 +30 +30 душно 1005.0 1004.1
09 22.02 В 9 н/о н/о +26.5 +15.9 52 +30 +30 душно 1004.2 1003.3
10 22.02 В 9 н/о н/о +27.0 +15.2 48 +30 +30 душно 1003.6 1002.7
11 22.02 В 12 н/о н/о +26.9 +14.2 46 +29 +29 жарко 1003.8 1002.9
12 22.02 В 9 н/о н/о +27.0 +13.7 44 +29 +29 жарко 1003.5 1002.6

 

Местоположение метеостанции Adelaide (Южная Австралия, Австралия): широта -34.95 долгота 138.53 высота над уровнем моря 8 м.

В архиве по умолчанию представлена погода в Adelaide за последнюю неделю. Архивные данные за месяц целиком и за предыдущие месяцы, начиная с января 2011 года, Вы можете получить, выбрав интересующий диапазон дат из раскрывающегося списка и нажав кнопку "Ввод!".

Внимание! Время в таблицах - всемирное. Для получения местного времени необходимо прибавить поправку, которая в Adelaide равна 9.5 ч.

Смотрите также архив погоды в соседних городах и на ближайших метеорологических станциях:

Погода в Adelaide (Kent Town) (Южная Австралия, Австралия) (9 км)
Погода в Mount Lofty (Южная Австралия, Австралия) (16 км)
Погода в Parafield Airport (Южная Австралия, Австралия) (21 км)
Погода в Noarlunga (Южная Австралия, Австралия) (25 км)
Погода в Kuitpo Forest Reserve (Южная Австралия, Австралия) (28 км)
Погода в Edinburgh Raaf (Южная Австралия, Австралия) (29 км)
Погода в Mount Crawford Aws (Южная Австралия, Австралия) (44 км)
Погода в Roseworthy Ag College (Южная Австралия, Австралия) (50 км)
Погода в Strathalbyn Racecourse (Южная Австралия, Австралия) (50 км)
Погода в Pallamana Aerodrome (Южная Австралия, Австралия) (65 км)

Пояснения к столбцам:

Ветер - указаны скорость ветра в м/с - средняя за 10 мин, порывы в срок и между сроками (в фигурных скобках) и направление, откуда дует ветер: С - северный, СВ - северо-восточный, В - восточный, ЮВ - юго-восточный, Ю - южный, ЮЗ - юго-западный, З - западный, СЗ - северо-западный.
Видимость - горизонтальная дальность видимости в метрах или километрах. При видимости от 1 до 10 км при отсутствии осадков обычно наблюдается дымка, при ухудшении видимости до 1 км и менее - туман. В сухую погоду видимость может ухудшаться дымом, пылью или мглою.
Явления - указаны атмосферные явления, наблюдавшиеся в срок или в последний час перед сроком; фигурными скобками обозначены явления, наблюдавшиеся между сроками (за 1-3 часа до срока); квадратными скобками обозначены град или гололедные отложения с указанием их диаметра в мм.
Облачность - указаны через наклонную черту общая и нижняя облачность в баллах и высота нижней границы облаков в метрах; квадратными скобками обозначены формы облаков: Ci - перистые, Cs - перисто-слоистые, Cc - перисто-кучевые, Ac - высококучевые, As - высокослоистые, Sc - слоисто-кучевые, Ns - слоисто-дождевые, Cu - кучевые, Cb - кучево-дождевые. Подробнее классификацию облаков см. в Атласе облаков (PDF).
T - Температура воздуха - температура, измеренная на высоте 2 м над землей.
Td - Температура точки росы - температура, при понижении до которой содержащийся в воздухе водяной пар достигнет насыщения.
f - Относительная влажность воздуха - влажноcть воздуха, измеренная на высоте 2 м над землей.
Te - Эффективная температура - температура, которую ощущает одетый по сезону человек в тени. Характеристика душности погоды. При расчете учитывается влияние влажности воздуха и скорости ветра на теплоощущения человека.
Tes - Эффективная температура на солнце - температура, которую ощущает человек, с поправкой на солнечный нагрев. Характеристика знойности погоды. Зависит от высоты солнца над горизонтом, облачности и скорости ветра. Ночью, в пасмурную погоду, а также при ветре 12 м/с и более поправка равна нулю.
P - Атмосферное давление - приведенное к уровню моря атмосферное давление.
Po - Атмосферное давление - измеренное на уровне метеостанции атмосферное давление.
Tmin - Минимальная температура - минимум температуры воздуха на высоте 2 м над землей.
Tmax - Максимальная температура - максимум температуры воздуха на высоте 2 м над землей.
R - Количество осадков - Количество выпавших осадков за период времени, мм. При наведении курсора мыши на число - период времени, за который выпало указанное количество осадков.
R24 - Количество осадков - Количество выпавших осадков за 24 часа, мм.
S - Снежный покров - Высота снежного покрова, см. При наведении курсора мыши на число - состояние снежного покрова и степень покрытия местности в баллах.